Latest Coastal Weather Observations for Coconut Island

IDQ60701

Issued at 1:01 pm EST Sunday 19 April 2015 (issued every 10 minutes, with the page automatically refreshed every 10 minutes)

About coastal observations | Map of coastal stations | Coastal observations for QLD | Marine services | Other Formats
Station Details ID: 027054 Name: COCONUT ISLAND Lat: -10.05 Lon: 143.07 Height: 3.5 m
Data from the previous 72 hours. | See also: Recent months at Coconut Island
Date/Time
EST
Temp

°C
Wind Pressure Rain
since 9am
mm
Weather Cloud Vis
km
Sea
Height
m
Swell
Dir
 
Speed
knots
Gust
knots
hPa Trend Height
m
Period
s
Dir
19/01:00pm 32.3 ESE 5 9 1010.5 - 0.0 - - - - - - -
19/12:30pm 33.4 SE 4 7 1011.0 - 0.0 - - - - - - -
19/12:00pm 32.2 ESE 5 9 1011.4 - 0.0 - - - - - - -
19/11:30am 32.3 ESE 5 10 1011.6 - 0.0 - - - - - - -
19/11:00am 32.3 ESE 5 9 1012.0 - 0.0 - - - - - - -
19/10:30am 31.2 ESE 5 8 1012.1 - 0.0 - - - - - - -
19/10:00am 31.1 ESE 5 10 1012.0 - 0.0 - - - - - - -
19/09:30am 30.9 ESE 5 10 1011.9 - 0.0 - - - - - - -
19/09:00am 30.2 E 5 9 1011.9 - 0.0 - - - - - - -
19/08:30am 29.3 E 5 10 1011.6 - 0.0 - - - - - - -
19/08:00am 28.6 E 5 8 1011.6 - 0.0 - - - - - - -
19/07:30am 27.0 ESE 4 8 1011.2 - 0.0 - - - - - - -
19/07:00am 25.8 SE 3 5 1010.7 - 0.0 - - - - - - -
19/06:30am 25.7 ESE 3 6 1010.4 - 0.0 - - - - - - -
19/06:00am 25.7 ESE 4 7 1010.2 - 0.0 - - - - - - -
19/05:30am 25.7 ESE 4 6 1009.6 - 0.0 - - - - - - -
19/05:00am 25.8 E 4 7 1009.3 - 0.0 - - - - - - -
19/04:30am 26.0 E 5 7 1009.4 - 0.0 - - - - - - -
19/04:00am 26.0 E 4 7 1009.4 - 0.0 - - - - - - -
19/03:30am 26.0 E 5 8 1009.5 - 0.0 - - - - - - -
19/03:00am 26.0 E 5 7 1009.4 - 0.0 - - - - - - -
19/02:30am 26.1 E 5 7 1009.4 - 0.0 - - - - - - -
19/02:00am 26.1 E 5 7 1009.8 - 0.0 - - - - - - -
19/01:30am 26.1 ENE 5 8 1010.0 - 0.0 - - - - - - -
19/01:00am 26.0 E 5 7 1010.3 - 0.0 - - - - - - -
19/12:30am 25.9 E 4 7 1010.8 - 0.0 - - - - - - -
19/12:00am 25.7 ENE 4 6 1011.1 - 0.0 - - - - - - -
 
Date/Time
EST
Temp

°C
Wind Pressure Rain
since 9am
mm
Weather Cloud Vis
km
Sea
Height
m
Swell
Dir
 
Speed
knots
Gust
knots
hPa Trend Height
m
Period
s
Dir
18/11:30pm 25.7 E 3 5 1011.6 - 0.0 - - - - - - -
18/11:00pm 25.7 E 2 4 1011.6 - 0.0 - - - - - - -
18/10:30pm 25.3 E 2 3 1011.4 - 0.0 - - - - - - -
18/10:00pm 25.3 CALM 0 0 1011.2 - 0.0 - - - - - - -
18/09:30pm 25.6 CALM 0 0 1011.0 - 0.0 - - - - - - -
18/09:00pm 25.7 CALM 0 1 1010.8 - 0.0 - - - - - - -
18/08:30pm 25.6 E 2 3 1010.5 - 0.0 - - - - - - -
18/08:00pm 25.8 E 2 3 1009.8 - 0.0 - - - - - - -
18/07:30pm 26.0 E 2 2 1009.7 - 0.0 - - - - - - -
18/07:00pm 26.2 ESE 1 2 1009.2 - 0.0 - - - - - - -
18/06:30pm 26.8 ESE 1 2 1008.9 - 0.0 - - - - - - -
18/06:00pm 28.1 CALM 0 1 1008.5 - 0.0 - - - - - - -
18/05:30pm 28.5 E 2 4 1008.4 - 0.0 - - - - - - -
18/05:00pm 28.8 ESE 1 2 1008.2 - 0.0 - - - - - - -
18/04:30pm 29.3 ENE 2 4 1008.1 - 0.0 - - - - - - -
18/04:00pm 29.8 ENE 3 4 1008.2 - 0.0 - - - - - - -
18/03:30pm 30.1 ENE 2 3 1008.2 - 0.0 - - - - - - -
18/03:00pm 30.6 NE 4 6 1008.3 - 0.0 - - - - - - -
18/02:30pm 31.1 ENE 3 5 1008.5 - 0.0 - - - - - - -
18/02:00pm 31.3 ESE 1 3 1009.0 - 0.0 - - - - - - -
18/01:30pm 30.3 ESE 2 4 1009.4 - 0.0 - - - - - - -
18/01:00pm 31.2 SE 2 4 1009.6 - 0.0 - - - - - - -
18/12:30pm 30.4 ESE 4 7 1010.1 - 0.0 - - - - - - -
18/12:00pm 32.3 ESE 3 6 1010.6 - 0.0 - - - - - - -
18/11:30am 30.9 SE 2 4 1011.1 - 0.0 - - - - - - -
18/11:00am 31.8 SE 2 5 1011.5 - 0.0 - - - - - - -
18/10:30am 31.5 SE 3 6 1011.8 - 0.0 - - - - - - -
18/10:00am 31.7 ESE 3 5 1012.0 - 0.0 - - - - - - -
18/09:30am 30.8 SE 2 5 1012.1 - 0.0 - - - - - - -
18/09:00am 29.8 ESE 3 5 1011.9 - 0.2 - - - - - - -
18/08:30am 29.0 SE 1 3 1011.8 - 0.2 - - - - - - -
18/08:00am 27.9 SE 1 2 1011.5 - 0.2 - - - - - - -
18/07:30am 25.9 CALM 0 3 1011.0 - 0.2 - - - - - - -
18/07:00am 25.4 CALM 0 2 1010.7 - 0.2 - - - - - - -
18/06:30am 25.4 SE 2 5 1010.3 - 0.2 - - - - - - -
18/06:00am 25.6 SSE 1 2 1010.0 - 0.2 - - - - - - -
18/05:30am 25.8 SSE 1 2 1009.9 - 0.2 - - - - - - -
18/05:00am 25.9 SSE 1 2 1009.7 - 0.2 - - - - - - -
18/04:30am 26.0 SSE 1 2 1009.8 - 0.2 - - - - - - -
18/04:00am 26.1 SSE 1 5 1009.7 - 0.2 - - - - - - -
18/03:30am 26.3 SSE 1 3 1009.6 - 0.2 - - - - - - -
18/03:00am 26.3 SSE 2 5 1009.5 - 0.2 - - - - - - -
18/02:30am 26.6 SSE 3 8 1009.4 - 0.2 - - - - - - -
18/02:00am 26.9 SSE 2 5 1009.7 - 0.2 - - - - - - -
18/01:30am 26.9 SE 3 7 1010.1 - 0.2 - - - - - - -
18/01:00am 27.1 SSE 2 4 1010.7 - 0.2 - - - - - - -
18/12:30am 27.2 SE 3 7 1011.0 - 0.2 - - - - - - -
18/12:00am 27.4 SSE 4 8 1011.1 - 0.2 - - - - - - -
 
Date/Time
EST
Temp

°C
Wind Pressure Rain
since 9am
mm
Weather Cloud Vis
km
Sea
Height
m
Swell
Dir
 
Speed
knots
Gust
knots
hPa Trend Height
m
Period
s
Dir
17/11:30pm 27.6 SSE 3 5 1011.1 - 0.2 - - - - - - -
17/11:00pm 27.5 SSE 4 6 1011.1 - 0.2 - - - - - - -
17/10:30pm 27.5 SSE 3 8 1011.2 - 0.2 - - - - - - -
17/10:00pm 27.6 SSE 3 6 1011.3 - 0.2 - - - - - - -
17/09:30pm 27.6 SE 3 6 1011.3 - 0.2 - - - - - - -
17/09:00pm 27.7 SSE 4 8 1011.0 - 0.2 - - - - - - -
17/08:30pm 27.9 SSE 3 5 1010.6 - 0.2 - - - - - - -
17/08:00pm 27.8 SSE 4 6 1010.1 - 0.2 - - - - - - -
17/07:30pm 27.9 SSE 4 6 1009.4 - 0.2 - - - - - - -
17/07:00pm 27.9 SSE 3 5 1009.1 - 0.2 - - - - - - -
17/06:30pm 28.4 SSE 3 5 1008.7 - 0.2 - - - - - - -
17/06:00pm 29.0 SSE 3 5 1008.4 - 0.2 - - - - - - -
17/05:30pm 29.5 SSE 3 5 1008.4 - 0.2 - - - - - - -
17/05:00pm 31.4 SE 3 4 1008.4 - 0.2 - - - - - - -
17/04:30pm 32.1 SE 2 5 1008.3 - 0.2 - - - - - - -
17/04:00pm 32.3 SE 2 5 1008.2 - 0.2 - - - - - - -
17/03:30pm 33.3 SE 2 4 1008.3 - 0.2 - - - - - - -
17/03:00pm 32.8 SE 2 4 1008.5 - 0.2 - - - - - - -
17/02:30pm 32.9 SE 3 7 1008.9 - 0.2 - - - - - - -
17/02:00pm 33.6 SE 2 5 1009.3 - 0.2 - - - - - - -
17/01:30pm 34.0 SSE 3 6 1009.7 - 0.2 - - - - - - -
17/01:00pm 33.6 SE 3 8 1010.0 - 0.2 - - - - - - -
17/12:30pm 33.6 SE 4 9 1010.5 - 0.2 - - - - - - -
17/12:00pm 33.2 SE 3 8 1011.1 - 0.2 - - - - - - -
17/11:30am 33.0 SE 5 11 1011.4 - 0.2 - - - - - - -
17/11:00am 32.7 SE 5 12 1011.7 - 0.2 - - - - - - -
17/10:30am 32.3 SE 5 13 1012.2 - 0.0 - - - - - - -
17/10:00am 31.7 SE 4 10 1012.3 - 0.0 - - - - - - -
17/09:30am 30.9 SE 5 10 1012.2 - 0.0 - - - - - - -
17/09:00am 30.0 SE 5 11 1011.9 - 0.4 - - - - - - -
17/08:30am 29.6 SE 5 11 1011.5 - 0.4 - - - - - - -
17/08:00am 28.4 SE 6 12 1011.2 - 0.4 - - - - - - -
17/07:30am 27.8 SE 4 8 1011.1 - 0.4 - - - - - - -
17/07:00am 26.9 SSE 3 8 1010.9 - 0.4 - - - - - - -
17/06:30am 26.8 SSE 4 9 1010.7 - 0.4 - - - - - - -
17/06:00am 26.6 SE 3 7 1010.4 - 0.4 - - - - - - -
17/05:30am 26.8 SSE 3 6 1009.9 - 0.4 - - - - - - -
17/05:00am 26.6 SSE 4 9 1009.6 - 0.4 - - - - - - -
17/04:30am 26.5 SSE 4 11 1009.5 - 0.4 - - - - - - -
17/04:00am 26.3 SE 3 7 1009.6 - 0.4 - - - - - - -
17/03:30am 26.1 ESE 9 15 1009.7 - 0.4 - - - - - - -
17/03:00am 26.9 SSE 4 8 1009.9 - 0.4 - - - - - - -
17/02:30am 26.9 SSE 4 7 1010.2 - 0.4 - - - - - - -
17/02:00am 27.0 SE 3 7 1010.6 - 0.4 - - - - - - -
17/01:30am 27.2 SSE 3 5 1011.2 - 0.4 - - - - - - -
17/01:00am 27.2 SE 4 9 1011.6 - 0.4 - - - - - - -
17/12:30am 27.2 SE 4 8 1011.9 - 0.4 - - - - - - -
17/12:00am 27.3 SE 5 12 1012.5 - 0.4 - - - - - - -
 
Date/Time
EST
Temp

°C
Wind Pressure Rain
since 9am
mm
Weather Cloud Vis
km
Sea
Height
m
Swell
Dir
 
Speed
knots
Gust
knots
hPa Trend Height
m
Period
s
Dir
16/11:30pm 27.4 SE 4 7 1012.9 - 0.4 - - - - - - -
16/11:00pm 27.4 SE 4 10 1013.1 - 0.4 - - - - - - -
16/10:30pm 27.6 SE 4 10 1013.1 - 0.4 - - - - - - -
16/10:00pm 27.4 SE 6 13 1013.2 - 0.4 - - - - - - -
16/09:30pm 27.6 SE 4 7 1013.0 - 0.4 - - - - - - -
16/09:00pm 27.4 SE 5 11 1012.8 - 0.4 - - - - - - -
16/08:30pm 27.5 SE 5 12 1012.6 - 0.4 - - - - - - -
16/08:00pm 27.6 SE 5 10 1011.8 - 0.4 - - - - - - -
16/07:30pm 27.6 SSE 5 12 1011.4 - 0.4 - - - - - - -
16/07:00pm 27.8 SSE 5 9 1011.2 - 0.4 - - - - - - -
16/06:30pm 27.9 SSE 4 7 1011.1 - 0.4 - - - - - - -
16/06:00pm 28.4 SSE 3 6 1011.1 - 0.4 - - - - - - -
16/05:30pm 29.5 SSE 4 7 1010.8 - 0.4 - - - - - - -
16/05:00pm 29.3 SSE 4 6 1010.6 - 0.4 - - - - - - -
16/04:30pm 29.6 SSE 4 6 1010.3 - 0.4 - - - - - - -
16/04:00pm 29.8 SSE 4 7 1010.2 - 0.4 - - - - - - -
16/03:30pm 27.8 SSE 3 8 1010.1 - 0.4 - - - - - - -
16/03:00pm 27.6 ESE 7 15 1010.6 - 0.0 - - - - - - -
16/02:30pm 32.3 SSE 4 6 1010.5 - 0.0 - - - - - - -
16/02:00pm 31.4 SSE 5 9 1010.6 - 0.0 - - - - - - -
16/01:30pm 30.8 SE 4 13 1011.2 - 0.0 - - - - - - -

Other Formats:

Comma delimited format used in spreadsheet applications
http://www.bom.gov.au/fwo/IDQ60701/IDQ60701.94182.axf

JavaScript Object Notation format (JSON) in row-major order
http://www.bom.gov.au/fwo/IDQ60701/IDQ60701.94182.json